THY7WN OJAI-LTFM

Flight info

Callsign THY7WN
Flight time N/A
Altitude 38000
Route LOSIL M319 ULINA M690 NOVPA J981 DATOK L550 GENIV L324 SAFTA DCT TOMBI UA16 KFK UM855 SISPI
Aircraft A359/H-SDE2E3GHIJ3J4J5LM1ORWXY/LB1D1

Departure

Time 2026-04-29 10:36
Airport Queen Alia International Airport (OJAI)

Arrival

Time N/A
Airport İstanbul Airport (LTFM)
Time Latitude Longitude Altitude Speed Heading
2026-04-29 10:13 31.72060 35.98885 2425 ft 0 kts 345°
2026-04-29 10:24 31.72053 35.98887 2421 ft 2 kts 355°
2026-04-29 10:24 31.72037 35.98885 2420 ft 2 kts 20°
2026-04-29 10:25 31.72022 35.98876 2420 ft 2 kts 40°
2026-04-29 10:25 31.72011 35.98862 2420 ft 2 kts 52°
2026-04-29 10:25 31.72002 35.98846 2420 ft 2 kts 60°
2026-04-29 10:25 31.71994 35.98829 2420 ft 2 kts 66°
2026-04-29 10:26 31.71988 35.98811 2420 ft 2 kts 71°
2026-04-29 10:26 31.71983 35.98792 2420 ft 2 kts 76°
2026-04-29 10:26 31.71981 35.98782 2421 ft 1 kts 79°
2026-04-29 10:26 31.71981 35.98780 2421 ft 0 kts 79°
2026-04-29 10:30 31.71982 35.98783 2421 ft 2 kts 79°
2026-04-29 10:30 31.71987 35.98836 2420 ft 12 kts 87°
2026-04-29 10:31 31.71928 35.98909 2421 ft 16 kts 164°
2026-04-29 10:31 31.71860 35.98993 2422 ft 15 kts 97°
2026-04-29 10:31 31.71876 35.99154 2421 ft 25 kts 81°
2026-04-29 10:31 31.71910 35.99392 2423 ft 34 kts 81°
2026-04-29 10:32 31.71956 35.99687 2423 ft 37 kts 79°
2026-04-29 10:32 31.71999 35.99980 2421 ft 36 kts 79°
2026-04-29 10:32 31.72040 36.00269 2423 ft 36 kts 81°
2026-04-29 10:32 31.72082 36.00561 2423 ft 38 kts 80°
2026-04-29 10:33 31.72129 36.00880 2424 ft 41 kts 80°
2026-04-29 10:33 31.72177 36.01218 2421 ft 43 kts 80°
2026-04-29 10:33 31.72227 36.01570 2422 ft 43 kts 80°
2026-04-29 10:33 31.72224 36.01790 2422 ft 13 kts 144°
2026-04-29 10:34 31.72153 36.01815 2421 ft 7 kts 169°
2026-04-29 10:34 31.72104 36.01825 2422 ft 7 kts 170°
2026-04-29 10:34 31.72057 36.01834 2421 ft 7 kts 173°
2026-04-29 10:34 31.72014 36.01820 2424 ft 7 kts 215°
2026-04-29 10:35 31.71980 36.01769 2426 ft 9 kts 239°
2026-04-29 10:35 31.71968 36.01683 2424 ft 20 kts 261°
2026-04-29 10:35 31.71910 36.01291 2423 ft 79 kts 260°
2026-04-29 10:35 31.71786 36.00441 2420 ft 131 kts 260°
2026-04-29 10:36 31.71597 35.99243 2668 ft 156 kts 261°
2026-04-29 10:36 31.71414 35.97973 3201 ft 160 kts 262°
2026-04-29 10:36 31.71233 35.96665 3715 ft 170 kts 263°
2026-04-29 10:36 31.71033 35.95229 3898 ft 187 kts 262°
2026-04-29 10:37 31.70753 35.93648 4003 ft 211 kts 255°
2026-04-29 10:37 31.69860 35.92174 4149 ft 239 kts 218°
2026-04-29 10:37 31.68244 35.91413 4368 ft 262 kts 195°
2026-04-29 10:37 31.66420 35.90978 4821 ft 271 kts 193°
2026-04-29 10:38 31.64560 35.90538 5400 ft 275 kts 194°
2026-04-29 10:38 31.62673 35.90065 5961 ft 279 kts 193°
2026-04-29 10:38 31.60778 35.89569 6574 ft 281 kts 193°
2026-04-29 10:38 31.58859 35.89057 7138 ft 283 kts 194°
2026-04-29 10:39 31.56929 35.88534 7732 ft 285 kts 194°
2026-04-29 10:39 31.54990 35.88007 8330 ft 287 kts 194°
2026-04-29 10:39 31.53075 35.87483 8936 ft 288 kts 194°
2026-04-29 10:39 31.51117 35.86947 9562 ft 290 kts 194°
2026-04-29 10:40 31.49143 35.86408 10156 ft 291 kts 194°
2026-04-29 10:40 31.47141 35.85964 10682 ft 296 kts 189°
2026-04-29 10:40 31.45043 35.85714 10946 ft 310 kts 186°
2026-04-29 10:40 31.42838 35.85505 11156 ft 325 kts 186°
2026-04-29 10:41 31.40542 35.85287 11358 ft 337 kts 186°
2026-04-29 10:41 31.38163 35.85058 11539 ft 347 kts 186°
2026-04-29 10:41 31.35737 35.84821 11684 ft 356 kts 186°
2026-04-29 10:41 31.33217 35.84568 11862 ft 365 kts 186°
2026-04-29 10:42 31.30652 35.84317 12074 ft 374 kts 186°
2026-04-29 10:42 31.20456 35.83315 13663 ft 385 kts 187°
2026-04-29 10:42 31.09622 35.82249 15196 ft 395 kts 187°
2026-04-29 10:42 30.98415 35.81147 16745 ft 404 kts 187°
2026-04-29 10:43 30.87219 35.80046 18190 ft 414 kts 187°
2026-04-29 10:43 30.76252 35.76554 19546 ft 411 kts 210°
2026-04-29 10:43 30.66109 35.70210 20812 ft 416 kts 211°
2026-04-29 10:43 30.55784 35.63905 22076 ft 422 kts 211°
2026-04-29 10:44 30.45327 35.57590 23284 ft 426 kts 211°
2026-04-29 10:44 30.35287 35.51533 24227 ft 431 kts 211°
2026-04-29 10:44 30.24593 35.45098 25184 ft 435 kts 211°
2026-04-29 10:44 30.13084 35.40100 26161 ft 446 kts 202°
2026-04-29 10:45 30.01139 35.35735 27151 ft 452 kts 202°
2026-04-29 10:45 29.89063 35.31286 28170 ft 458 kts 202°
2026-04-29 10:45 29.76847 35.26781 29148 ft 465 kts 202°
2026-04-29 10:45 29.64442 35.22220 30114 ft 470 kts 203°
2026-04-29 10:46 29.54000 35.14251 31049 ft 457 kts 231°
2026-04-29 10:46 29.45702 35.03031 32413 ft 448 kts 234°
2026-04-29 10:46 29.36558 34.93273 33594 ft 453 kts 220°
2026-04-29 10:46 29.26333 34.85243 34576 ft 451 kts 220°
2026-04-29 10:47 29.15884 34.77055 35470 ft 448 kts 220°
2026-04-29 10:47 29.07228 34.67557 36294 ft 429 kts 243°
2026-04-29 10:47 29.04158 34.54772 36986 ft 420 kts 270°
2026-04-29 10:47 29.06706 34.43590 37677 ft 427 kts 294°
2026-04-29 10:48 29.15196 34.33778 38004 ft 457 kts 323°
2026-04-29 10:48 29.28131 34.30995 38013 ft 504 kts 359°
2026-04-29 10:48 29.35872 34.33170 38012 ft 511 kts
2026-04-29 10:48 29.39358 34.33712 38014 ft 500 kts 354°
2026-04-29 10:49 29.42785 34.33664 38014 ft 488 kts 345°
2026-04-29 10:49 29.46091 34.33000 38016 ft 475 kts 336°
2026-04-29 10:49 29.49169 34.31761 38017 ft 464 kts 327°
2026-04-29 10:50 29.54650 34.28087 38017 ft 454 kts 319°
2026-04-29 10:50 29.70497 34.17335 38018 ft 461 kts 324°
2026-04-29 10:51 29.93211 34.03512 38013 ft 461 kts 324°
2026-04-29 10:51 30.15902 33.89596 38015 ft 461 kts 324°
2026-04-29 10:52 30.38587 33.75614 38023 ft 462 kts 324°
2026-04-29 10:52 30.61307 33.61534 38028 ft 463 kts 325°
2026-04-29 10:53 30.84045 33.47367 38034 ft 463 kts 325°
2026-04-29 10:53 31.06741 33.33150 38045 ft 463 kts 325°
2026-04-29 10:54 31.29467 33.18836 38048 ft 464 kts 325°
2026-04-29 10:54 31.41669 33.14027 38056 ft 487 kts 348°
2026-04-29 10:54 31.55279 33.13287 38053 ft 491 kts 351°
2026-04-29 10:55 31.81812 33.09328 38054 ft 465 kts 324°
2026-04-29 10:55 31.91209 32.99369 38052 ft 452 kts 308°
2026-04-29 10:55 31.99754 32.88572 38048 ft 452 kts 308°
2026-04-29 10:56 32.14229 32.70456 38060 ft 451 kts 308°
2026-04-29 10:56 32.31323 32.48955 38053 ft 451 kts 308°
2026-04-29 10:57 32.48483 32.27242 38054 ft 452 kts 308°
2026-04-29 10:57 32.67036 32.07168 38048 ft 470 kts 333°
2026-04-29 10:58 32.92412 31.98010 38042 ft 477 kts 337°
2026-04-29 10:58 33.17876 31.88902 38036 ft 478 kts 337°
2026-04-29 10:59 33.43338 31.79743 38032 ft 479 kts 337°
2026-04-29 10:59 33.68850 31.70508 38024 ft 479 kts 338°
2026-04-29 11:00 33.94406 31.61196 38025 ft 480 kts 338°
2026-04-29 11:00 34.19996 31.51803 38016 ft 480 kts 338°
2026-04-29 11:01 34.45568 31.42361 38012 ft 481 kts 338°
2026-04-29 11:01 34.70994 31.32912 38015 ft 481 kts 338°
2026-04-29 11:02 34.96566 31.23349 38006 ft 480 kts 338°
2026-04-29 11:02 35.22122 31.13728 38004 ft 480 kts 339°
2026-04-29 11:03 35.47681 31.04042 37998 ft 480 kts 339°
2026-04-29 11:03 35.55665 31.01002 37998 ft 480 kts 339°
2026-04-29 11:04 35.62049 30.98568 37997 ft 480 kts 339°
2026-04-29 11:04 35.84222 30.90084 37997 ft 480 kts 339°
2026-04-29 11:05 36.10089 30.82160 37992 ft 488 kts 354°
2026-04-29 11:05 36.37325 30.81339 37985 ft 489 kts 354°
2026-04-29 11:06 36.64635 30.80397 37992 ft 489 kts 355°
2026-04-29 11:06 36.77943 30.79948 37990 ft 471 kts 354°
2026-04-29 11:06 36.91051 30.79483 38000 ft 471 kts 354°
2026-04-29 11:07 37.16981 30.76345 37992 ft 468 kts 350°
2026-04-29 11:07 37.42956 30.73105 38001 ft 468 kts 350°
2026-04-29 11:08 37.68874 30.69492 38033 ft 468 kts 350°
2026-04-29 11:08 37.94636 30.66285 38049 ft 468 kts 349°
2026-04-29 11:09 38.20753 30.64357 38052 ft 469 kts 353°
2026-04-29 11:09 38.46833 30.62800 38061 ft 469 kts 353°
2026-04-29 11:10 38.72781 30.60306 38058 ft 461 kts 339°
2026-04-29 11:10 38.95549 30.45926 38070 ft 456 kts 330°
2026-04-29 11:10 39.06825 30.38490 37522 ft 454 kts 330°
2026-04-29 11:11 39.18086 30.31041 36467 ft 455 kts 330°
2026-04-29 11:11 39.29368 30.23549 35444 ft 457 kts 330°
2026-04-29 11:11 39.40635 30.16040 35085 ft 456 kts 329°
2026-04-29 11:12 39.63817 30.02515 35090 ft 456 kts 334°
2026-04-29 11:12 39.78810 29.94141 35096 ft 449 kts 333°
2026-04-29 11:12 39.81638 29.92554 35102 ft 434 kts 333°
2026-04-29 11:13 39.84365 29.91026 35110 ft 424 kts 333°
2026-04-29 11:13 39.87099 29.89485 34973 ft 434 kts 333°
2026-04-29 11:13 39.89909 29.87892 34772 ft 447 kts 333°
2026-04-29 11:13 39.92773 29.86253 34523 ft 451 kts 332°
2026-04-29 11:14 39.95551 29.84382 33959 ft 448 kts 328°
2026-04-29 11:14 39.98273 29.82414 33279 ft 447 kts 328°
2026-04-29 11:14 40.00996 29.80460 32616 ft 445 kts 328°
2026-04-29 11:14 40.03712 29.78533 31970 ft 444 kts 328°
2026-04-29 11:15 40.06394 29.76642 31348 ft 443 kts 329°
2026-04-29 11:15 40.09101 29.74741 30738 ft 441 kts 329°
2026-04-29 11:15 40.11812 29.72839 30128 ft 440 kts 329°
2026-04-29 11:15 40.14507 29.70950 29410 ft 439 kts 329°
2026-04-29 11:16 40.17200 29.69063 28708 ft 438 kts 329°
2026-04-29 11:16 40.19879 29.67184 28048 ft 436 kts 329°
2026-04-29 11:16 40.22452 29.65154 27458 ft 422 kts 324°
2026-04-29 11:16 40.24835 29.63036 26598 ft 407 kts 322°
2026-04-29 11:17 40.27134 29.60932 25471 ft 401 kts 322°
2026-04-29 11:17 40.29396 29.58852 24249 ft 399 kts 322°
2026-04-29 11:17 40.31650 29.56791 23243 ft 380 kts 322°
2026-04-29 11:17 40.33890 29.54765 22863 ft 356 kts 322°